Regional Weather Roundup
Issued by NWS

Home | Current Version | Previous Version | Text Only | Print | Product List | Glossary On
Versions: 1 2 3 4 5 6 7 8 9 10 11 12 13 14 15 16 17 18 19 20 21 22 23 24 25 26 27 28 29 30 31 32 33 34 35 36 37 38 39 40 41 42 43 44 45 46 47 48 49 50
000
ASUS42 KKEY 300210
RWRKEY

FLORIDA REGIONAL WEATHER ROUNDUP FOR THE FLORIDA KEYS
NATIONAL WEATHER SERVICE KEY WEST FLORIDA
1000 PM EDT FRI MAY 29 2015

...SOUTH FLORIDA AND THE KEYS...

CITY           SKY/WX    TMP DP  RH WIND       PRES   REMARKS
FORT MYERS     CLEAR     79  69  71 E7        30.04R
SW REGIONAL AP CLEAR     78  68  71 E9        30.05R
NAPLES         PTCLDY    80  69  69 E10       30.04R
MIAMI          MOCLDY    81  67  62 E10       30.05R
WEST KENDALL   CLOUDY    79  70  74 E10       30.05R
HOMESTEAD      PTCLDY    79  71  75 NE8       30.04R
MARATHON       CLEAR     81  70  69 E8        30.04R
BOCA CHICA NAS PTCLDY    79  68  69 E13       30.04R
KEY WEST INTL  CLEAR     80  69  69 E14       30.04R

...INTERNATIONAL WEATHER...

CITY           SKY/WX    TMP DP  RH WIND       PRES   REMARKS
NASSAU BAHAMAS PTCLDY    79  68  69 E3        30.06R
CANCUN MEXICO  CLEAR     81  75  83 E6        29.98R
COZUMEL MEXICO PTCLDY    75  73  94 CALM      29.96R

ADJACENT COASTAL WATERS...

STATION/POSITION TIME  SKY/WX   TEMP    WIND        PRES    WAVE
                                AIR SEA DIR/SP/G            HT/PER
                 (UTC)          (F)     (DEG/KT/KT) (MB)    (FT/S)
PULASKI SHOAL LI 0100            81      90/  9/ 10 1016.8R
SAND KEY         0150            80     100/ 13/ 15 1017.2R
SOMBRERO KEY     0200            80      90/ 13/ 14 1017.9R
LONG KEY         0100            80 82   90/ 13/ 14 1017.7R
MOLASSES REEF    0200            80 82   70/ 12/ 13 1017.2R
FOWEY ROCKS      NOT AVBL

$$


USA.gov is the U.S. government's official web portal to all federal, state and local government web resources and services.